COSMOS 1562

Satellite information

Favourite Embed

Satellite Type and Status

PAYLOADIN ORBIT

Key statistics

Satellite COSMOS 1562 at a glance.

Uptime

15017

Days in orbit

Revolutions

≈ 12.5

Per day

Orbit

LEO

Low Earth Orbit

Inclination

74.0

Latest

Satellite identification and parameters

Extended collection of information and parameters for COSMOS 1562.

Object identification

Identified? True

Debris? False

Object name: COSMOS 1562

International designator: 1984-052D

Object number (NORAD): 15001

Object ID (CCSDS): 15001

Country: COMMONWEALTH OF INDEPENDENT STATES (CIS)

Current information (Y/N): Y

RCS size: MEDIUM

Orbital parameters

Period: 115.204 minutes

Inclination: 74.0125 deg

SMA: 7842.803 km

Apoapsis: 1476.784 km

Periapsis: 1452.551 km

RAAN: 52.9051 deg

Eccentricy: 0.0015449

Argument of periapsis: 277.7543 deg

Mean anomaly: 92.4096 deg

Mean motion: 12.49959155 rev/day

Mean motion (dot): 0.00000006 rev/day2

B* drag term: 0.00014747 1/REarth

Two-line elements (TLE)

Creation date: July 9, 2025, 2:22 a.m.

Reference frame: TEME

Reference center: EARTH

Epoch: July 8, 2025, 8:27 p.m. UTC

TLE line 0: 0 COSMOS 1562

TLE line 1: 1 15001U 84052D 25189.85247917 .00000006 00000-0 14747-3 0 9996

TLE line 2: 2 15001 74.0125 52.9051 0015449 277.7543 92.4096 12.49959155875884

Live tracking on map

Real-time ground track for satellite COSMOS 1562.

In-orbit conjunctions

There are no conjunctions computed for COSMOS 1562, at the moment. Check back to stay up to date, as we update our databases every day.

Go to all conjunctions

Associated space launch

Military communications satellites

COSMOS 1562 was lifted into orbit during the mission ‘Kosmos-3M | Strela-1M 281-288’, on board a Kosmos-3M space rocket.

The launch took place on May 28, 1984, 9:52 p.m. from 132/2.

For more information about the launch, click the button.

Launch to space Kosmos-3M | Strela-1M 281-288
Kosmos-3M | Strela-1M 281-288

Agency: N/A

Status: Launch Successful

Launch date: May 28, 1984, 9:52 p.m. UTC

Rocket: Kosmos-3M

Launch pad: 132/2

Location: Plesetsk Cosmodrome, Russian Federation

...

Latest news about this satellite

There are no fresh news available about this satellite. Check back as we update our databases every day.


Newsletter sign-up

Weekly statistics, charts and insights to help you stay on top of the space industry.